When you browse on this site, cookies collect data to enhance your experience and personalize the content and advertising you see.
Visit our Privacy Policy to learn more. By continuing to use the site, you agree to this use of cookies and data.

Hourly Weather El Arenal

Today, 10 August, Monday

Time Temperature Precipitation Wind Pressure Humidity
00:00 +15°C° 0.1 mm 1 mps 592 mmHg 95%
01:00 +15°C° 0.1 mm 1 mps 591 mmHg 95%
02:00 +15°C° 0.1 mm 1 mps 591 mmHg 95%
03:00 +15°C° 0 mm 1 mps 591 mmHg 96%
04:00 +15°C° 0 mm 1 mps 591 mmHg 96%
05:00 +15°C° 0 mm 1 mps 591 mmHg 96%
06:00 +15°C° 0 mm 1 mps 591 mmHg 92%
07:00 +15°C° 0 mm 0 mps 592 mmHg 89%
08:00 +16°C° 0 mm 0 mps 592 mmHg 85%
09:00 +19°C° 0.1 mm 1 mps 593 mmHg 78%
10:00 +21°C° 0.1 mm 1 mps 593 mmHg 70%
11:00 +21°C° 0.1 mm 2 mps 594 mmHg 63%
12:00 +22°C° 0.7 mm 3 mps 593 mmHg 65%
13:00 +22°C° 0.7 mm 3 mps 593 mmHg 67%
14:00 +22°C° 0.7 mm 4 mps 592 mmHg 68%
15:00 +21°C° 0.4 mm 4 mps 592 mmHg 72%
16:00 +20°C° 0.4 mm 4 mps 591 mmHg 76%
17:00 +19°C° 0.4 mm 4 mps 591 mmHg 80%
18:00 +18°C° 0.2 mm 3 mps 591 mmHg 85%
19:00 +17°C° 0.2 mm 2 mps 591 mmHg 89%
20:00 +16°C° 0.2 mm 2 mps 591 mmHg 94%
21:00 +16°C° 0.2 mm 2 mps 591 mmHg 93%
22:00 +16°C° 0.2 mm 2 mps 591 mmHg 93%
23:00 +16°C° 0.2 mm 2 mps 591 mmHg 93%

Tomorrow, 11 August, Tuesday

Time Temperature Precipitation Wind Pressure Humidity
00:00 +16°C° 0.1 mm 1 mps 591 mmHg 93%
01:00 +15°C° 0.1 mm 1 mps 590 mmHg 93%
02:00 +15°C° 0.1 mm 1 mps 590 mmHg 92%
03:00 +15°C° 0 mm 1 mps 589 mmHg 93%
04:00 +14°C° 0 mm 1 mps 589 mmHg 94%
05:00 +13°C° 0 mm 1 mps 589 mmHg 95%
06:00 +15°C° 0 mm 1 mps 590 mmHg 89%
07:00 +16°C° 0 mm 1 mps 591 mmHg 82%
08:00 +18°C° 0 mm 1 mps 591 mmHg 76%
09:00 +20°C° 0 mm 1 mps 592 mmHg 69%
10:00 +21°C° 0 mm 2 mps 592 mmHg 62%
11:00 +23°C° 0 mm 2 mps 593 mmHg 55%
12:00 +22°C° 0.3 mm 3 mps 592 mmHg 59%
13:00 +22°C° 0.3 mm 4 mps 592 mmHg 62%
14:00 +22°C° 0.3 mm 5 mps 591 mmHg 66%
15:00 +21°C° 0.3 mm 4 mps 590 mmHg 69%
16:00 +20°C° 0.3 mm 4 mps 590 mmHg 73%
17:00 +19°C° 0.3 mm 4 mps 590 mmHg 77%
18:00 +18°C° 0.1 mm 3 mps 590 mmHg 82%
19:00 +17°C° 0.1 mm 3 mps 590 mmHg 87%
20:00 +16°C° 0.1 mm 2 mps 590 mmHg 92%
21:00 +15°C° 0 mm 2 mps 590 mmHg 93%
22:00 +15°C° 0 mm 2 mps 590 mmHg 93%
23:00 +15°C° 0 mm 1 mps 590 mmHg 94%

Day after tomorrow, 12 August, Wednesday

Time Temperature Precipitation Wind Pressure Humidity
00:00 +15°C° 0 mm 1 mps 590 mmHg 93%
01:00 +15°C° 0 mm 1 mps 589 mmHg 93%
02:00 +14°C° 0 mm 1 mps 589 mmHg 93%
03:00 +14°C° 0 mm 1 mps 589 mmHg 93%
04:00 +14°C° 0 mm 1 mps 589 mmHg 94%
05:00 +13°C° 0 mm 1 mps 589 mmHg 94%
06:00 +15°C° 0 mm 1 mps 590 mmHg 88%
07:00 +16°C° 0 mm 1 mps 590 mmHg 81%
08:00 +18°C° 0 mm 1 mps 591 mmHg 75%
09:00 +20°C° 0 mm 1 mps 592 mmHg 67%
10:00 +21°C° 0 mm 2 mps 592 mmHg 59%
11:00 +22°C° 0 mm 3 mps 593 mmHg 51%
12:00 +22°C° 0.6 mm 3 mps 592 mmHg 56%
13:00 +22°C° 0.6 mm 4 mps 591 mmHg 61%
14:00 +22°C° 0.6 mm 5 mps 591 mmHg 66%
15:00 +21°C° 0.8 mm 5 mps 590 mmHg 70%
16:00 +19°C° 0.8 mm 5 mps 590 mmHg 74%
17:00 +17°C° 0.8 mm 5 mps 590 mmHg 79%
18:00 +17°C° 0.2 mm 4 mps 590 mmHg 83%
19:00 +16°C° 0.2 mm 3 mps 590 mmHg 87%
20:00 +15°C° 0.2 mm 2 mps 590 mmHg 90%
21:00 +15°C° 0 mm 2 mps 590 mmHg 91%
22:00 +15°C° 0 mm 1 mps 590 mmHg 92%
23:00 +15°C° 0 mm 1 mps 590 mmHg 93%

13 August, Thursday

Time Temperature Precipitation Wind Pressure Humidity
00:00 +14°C° 0 mm 1 mps 590 mmHg 93%
01:00 +14°C° 0 mm 1 mps 590 mmHg 94%
02:00 +13°C° 0 mm 0 mps 589 mmHg 94%
03:00 +13°C° 0 mm 0 mps 589 mmHg 94%
04:00 +13°C° 0 mm 0 mps 589 mmHg 94%
05:00 +12°C° 0 mm 0 mps 589 mmHg 94%
06:00 +14°C° 0 mm 0 mps 590 mmHg 87%
07:00 +16°C° 0 mm 1 mps 591 mmHg 81%
08:00 +18°C° 0 mm 1 mps 591 mmHg 75%
09:00 +19°C° 0 mm 2 mps 592 mmHg 70%
10:00 +20°C° 0 mm 2 mps 592 mmHg 64%
11:00 +21°C° 0 mm 3 mps 592 mmHg 58%
12:00 +22°C° 0.3 mm 4 mps 592 mmHg 58%
13:00 +22°C° 0.3 mm 5 mps 591 mmHg 58%
14:00 +22°C° 0.3 mm 6 mps 591 mmHg 58%
15:00 +21°C° 0.2 mm 5 mps 591 mmHg 63%
16:00 +20°C° 0.2 mm 5 mps 590 mmHg 68%
17:00 +17°C° 0.2 mm 5 mps 590 mmHg 73%
18:00 +17°C° 0.1 mm 4 mps 590 mmHg 78%
19:00 +16°C° 0.1 mm 2 mps 590 mmHg 82%
20:00 +15°C° 0.1 mm 1 mps 590 mmHg 87%
21:00 +15°C° 0 mm 1 mps 590 mmHg 87%
22:00 +14°C° 0 mm 0 mps 590 mmHg 87%
23:00 +14°C° 0 mm 0 mps 590 mmHg 87%

14 August, Friday

Time Temperature Precipitation Wind Pressure Humidity
00:00 +14°C° 0 mm 0 mps 590 mmHg 88%
01:00 +13°C° 0 mm 0 mps 589 mmHg 89%
02:00 +13°C° 0 mm 0 mps 588 mmHg 90%
03:00 +12°C° 0 mm 0 mps 588 mmHg 90%
04:00 +12°C° 0 mm 0 mps 588 mmHg 90%
05:00 +12°C° 0 mm 0 mps 588 mmHg 90%
06:00 +14°C° 0 mm 1 mps 589 mmHg 82%
07:00 +16°C° 0 mm 1 mps 590 mmHg 74%
08:00 +18°C° 0 mm 1 mps 591 mmHg 65%
09:00 +19°C° 0 mm 2 mps 591 mmHg 59%
10:00 +21°C° 0 mm 3 mps 592 mmHg 53%
11:00 +22°C° 0 mm 4 mps 592 mmHg 47%
12:00 +22°C° 0 mm 5 mps 592 mmHg 49%
13:00 +23°C° 0 mm 6 mps 591 mmHg 50%
14:00 +23°C° 0 mm 7 mps 591 mmHg 51%
15:00 +21°C° 0.1 mm 6 mps 590 mmHg 57%
16:00 +20°C° 0.1 mm 6 mps 590 mmHg 63%
17:00 +19°C° 0.1 mm 5 mps 589 mmHg 69%
18:00 +18°C° 0.1 mm 4 mps 589 mmHg 75%
19:00 +16°C° 0.1 mm 3 mps 589 mmHg 81%
20:00 +15°C° 0.1 mm 2 mps 589 mmHg 87%
21:00 +15°C° 0 mm 1 mps 590 mmHg 86%
22:00 +15°C° 0 mm 1 mps 590 mmHg 86%
23:00 +14°C° 0 mm 0 mps 590 mmHg 86%

15 August, Saturday

Time Temperature Precipitation Wind Pressure Humidity
00:00 +14°C° 0.1 mm 0 mps 589 mmHg 87%
01:00 +14°C° 0.1 mm 0 mps 589 mmHg 89%
02:00 +13°C° 0.1 mm 0 mps 588 mmHg 90%
03:00 +13°C° 0 mm 0 mps 588 mmHg 91%
04:00 +13°C° 0 mm 0 mps 588 mmHg 92%
05:00 +12°C° 0 mm 0 mps 588 mmHg 93%
06:00 +14°C° 0 mm 0 mps 589 mmHg 86%
07:00 +15°C° 0 mm 0 mps 590 mmHg 79%
08:00 +19°C° 0 mm 1 mps 591 mmHg 72%
09:00 +20°C° 0 mm 1 mps 591 mmHg 65%
10:00 +21°C° 0 mm 2 mps 592 mmHg 57%
11:00 +22°C° 0 mm 3 mps 592 mmHg 50%
12:00 +22°C° 0 mm 4 mps 592 mmHg 52%
13:00 +22°C° 0 mm 4 mps 591 mmHg 53%
14:00 +23°C° 0 mm 5 mps 591 mmHg 55%
15:00 +21°C° 0.7 mm 5 mps 591 mmHg 62%
16:00 +20°C° 0.7 mm 4 mps 590 mmHg 68%
17:00 +19°C° 0.7 mm 3 mps 590 mmHg 75%
18:00 +18°C° 0.5 mm 3 mps 590 mmHg 80%
19:00 +17°C° 0.5 mm 2 mps 590 mmHg 85%
20:00 +16°C° 0.5 mm 2 mps 590 mmHg 90%
21:00 +15°C° 0 mm 1 mps 590 mmHg 91%
22:00 +15°C° 0 mm 1 mps 590 mmHg 93%
23:00 +15°C° 0 mm 1 mps 590 mmHg 94%
Show more